Location: Skalnate Pleso
(49.1889°N, 20.2450°E)
Time: 23:43:38
(UTC+02:00)

Cosmos 1605 Rocket - Pass Details

Date: 23 February 2020
Orbit: 944 x 1007 km, 82.9° (Epoch: 05 April)

Event Time Altitude Azimuth Distance (km) Brightness Sun altitude
Rises 04:05:11 0° 346° (NNW) 3,686 7.0 -25.0°
Reaches altitude 10° 04:07:47 10° 342° (NNW) 2,725 6.3 -24.6°
Enters shadow 04:13:30 49° 277° (W) 1,220 4.1 -23.7°
